Starlink 32431

operational
NORAD ID: 61256 Int'l Des: 2024-175 Owner: SPXS Country: US Constellation: starlink
LEOCIRCULAR

About Starlink 32431

Description loading...

Live Position

Loading 3D Globe...

Upcoming Passes

Altitude History

Altitude vs Time

uPlot chart will show altitude changes over time

Two-Line Element Set

1 61256U 24175P 25305.60783756 .00000644 00000-0 33889-4 0 9995
2 61256 53.1623 68.9694 0000285 107.8055 252.2977 15.30170979 61840
Epoch: Nov 1, 2025 • Age: 7 hours

Current Status

Altitude 480.8 km
Velocity 7.63 km/s
Sub-Earth Point 49.20°N, 128.48°E
Launch Date Sep 25, 2024
Age 1.1 years
Type internet

Technical Details

Classification Payload
Mass 730.00 kg
Dry Mass 700.00 kg
Total Mass 730.00 kg
Length 0.30 m
Diameter 4.10 m
Span 29.00 m
Shape Box + pan
Manufacturer SPXS
Bus Type Starlink V2M
Phase Status In Orbit
Owner/State SPXS/US

Large Constellations

Loading constellations...